Location: Guilderland
(42.7045°N, 73.9115°W)
Time: 03:46:57
(UTC+00:00)

ATLAS CENTAUR R/B - Pass Details

Date: 24 January 2020
Orbit: 228 x 6384 km, 57.3° (Epoch: 18 February)

Event Time Altitude Azimuth Distance (km) Brightness Sun altitude
Rises 22:00:40 0° 256° (WSW) 2,786 7.7 -1.3°
Reaches altitude 10° 22:02:17 10° 263° (W) 2,194 6.5 -1.6°
Maximum altitude 22:07:06 48° 339° (NNW) 1,552 4.1 -2.4°
Drops below altitude 10° 22:19:43 10° 50° (NE) 5,601 6.3 -4.5°
Enters shadow 22:24:03 - 54° (NE) 6,986 6.8 -5.2°
